Location: Clarion
(42.7316°N, 93.7330°W)
Time: 09:43:56
(UTC+00:00)

Cosmos 2084 Rocket - Pass Details

Date: 22 April 2026
Orbit: 530 x 580 km, 62.8° (Epoch: 17 May)

Event Time Altitude Azimuth Distance (km) Brightness Sun altitude
Rises 09:59:38 0° 314° (NW) 2,766 6.8 -14.6°
Reaches altitude 10° 10:02:00 10° 305° (NW) 1,873 5.8 -14.2°
Maximum altitude 10:05:47 33° 241° (WSW) 983 4.0 -13.6°
Drops below altitude 10° 10:09:35 10° 178° (S) 1,880 5.8 -13.0°
Sets 10:11:59 0° 168° (SSE) 2,777 6.7 -12.6°
